Regional Weather Roundup
Issued by NWS

Home | Current Version | Previous Version | Graphics & Text | Print | Product List | Glossary On
Versions: 1 2 3 4 5 6 7 8 9 10 11 12 13 14 15 16 17 18 19 20 21 22 23 24 25 26 27 28 29 30 31 32 33 34 35 36 37 38 39 40 41 42 43 44 45 46 47 48 49 50
000
ASUS43 KLOT 252010
RWRIL

ILLINOIS REGIONAL WEATHER ROUNDUP
NATIONAL WEATHER SERVICE CHICAGO/ROMEOVILLE IL
200 PM CST SUN JAN 25 2015

NOTE: "FAIR" INDICATES FEW OR NO CLOUDS BELOW 12,000 FEET WITH NO
SIGNIFICANT WEATHER AND/OR OBSTRUCTIONS TO VISIBILITY.

* THESE STATIONS ARE NOT UNDER NWS QUALITY CONTROL. THEY ALSO MAY NOT
  REPORT WEATHER SUCH AS PRECIPITATION OR FOG.

ILZ001-002-007-009-015-016-024-252100-
NORTHWEST ILLINOIS

CITY           SKY/WX    TMP DP  RH WIND       PRES   REMARKS
MOLINE         CLOUDY    30  24  78 NE14G23   29.84R WCI  19
STERLING*      CLOUDY    30  19  64 NE15G23   29.84R WCI  19
SAVANNA*       CLOUDY    30  20  66 NE16G24   29.89R WCI  19
$$

ILZ003-004-008-010-011-017-018-252100-
NORTH CENTRAL ILLINOIS

CITY           SKY/WX    TMP DP  RH WIND       PRES   REMARKS
ROCKFORD       CLOUDY    28  16  60 NE22      29.89R WCI  14
FREEPORT*      CLOUDY    27  19  71 NE18G24   29.90R WCI  14
ROCHELLE*      CLOUDY    28  19  71 N25G31    29.84R WCI  13
DE KALB*       CLOUDY    27  20  75 NE23G30   29.83R WCI  12
PERU*          LGT SNOW  30  28  90 NE24G30   29.80R WCI  16
$$

ILZ005-006-012>014-019>023-252100-
NORTHEAST ILLINOIS

CITY           SKY/WX    TMP DP  RH WIND       PRES   REMARKS
CHICAGO-OHARE  LGT SNOW  28  23  81 NE20G29   29.83R WCI  15
CHICAGO-MIDWAY LGT SNOW  31  27  85 NE21G29   29.81R FOG     WCI  18
AURORA         LGT SNOW  29  22  75 NE23G32   29.81R WCI  15
LANSING*       LGT SNOW  30  28  94 NE15G28   29.79R WCI  19
JOLIET*        LGT SNOW  31  28  91 NE14G20   29.79R WCI  20
WAUKEGAN       CLOUDY    26  17  68 NE17G29   29.87R WCI  13
DUPAGE AIRPORT LGT SNOW  28  22  78 NE23G30   29.81R WCI  14
KANKAKEE*      MIX PCPN  32  32  98 NE16G23   29.74S WCI  21
WHEELING       LGT SNOW  27  21  78 N20G30    29.87R WCI  13
MORRIS*        LGT SNOW  31  30  96 NE13      29.77R VSB 1   WCI  21
ROMEOVILLE*    DRIZZLE   30  28  92 NE21G28   29.79R WCI  17
NORTHERLY ISL    N/A     29  27  92 NE20        N/A  WCI  16
$$

LMZ740>746-252100-
SOUTHERN LAKE MICHIGAN

STATION/POSITION SKY/WX   TEMP    WIND        PRES    VSBY  WAVE
                          AIR SEA DIR/SP/G                  HT/PER
                          (F)     (DEG/KT/KT) (MB)    (MI)  (FT/S)
WAUKEGAN HARBOR            27      40/ 28/ 34   N/A
HARRISON CRIB              28      30/ 27/ 30   N/A
BURNHAM HARBOR             28      20/ 20/ 22   N/A
CALUMET HARBOR             29      30/ 20/ 26   N/A
MICHIGAN CITY              27      20/ 21/ 24   N/A
$$

ILZ025>027-034>036-040-047-049-050-058-095>099-252100-
WEST-CENTRAL ILLINOIS

CITY           SKY/WX    TMP DP  RH WIND       PRES   REMARKS
QUINCY         LGT SNOW  34  32  92 N20G31    29.73R FOG     WCI  23
GALESBURG*     LGT SNOW  30  28  92 N18G28    29.79R WCI  17
MACOMB*        LGT RAIN  32  31  97 N18G26    29.79R WCI  20
JACKSONVILLE*  CLOUDY    38  35  90 N15G24    29.68R WCI  29
PITTSFIELD*    LGT RAIN  37  34  90 N15G23    29.70R WCI  28
$$

ILZ028>032-037-038-041>044-048-051>054-059>061-252100-
CENTRAL ILLINOIS

CITY           SKY/WX    TMP DP  RH WIND       PRES   REMARKS
PONTIAC        LGT SNOW  34  33  96 NE21      29.74R WCI  23
BLOOMINGTON    MIX PCPN  33  33 100 NE22      29.69R FOG     WCI  21
DECATUR        CLOUDY    36  34  92 N20       29.63R FOG     WCI  25
PEORIA         LGT SNOW  35  31  85 N16G23    29.73R FOG     WCI  25
LACON*         LGT SNOW  31  29  91 N12G17    29.77R VSB 1   WCI  22
LINCOLN*       CLOUDY    37  34  90 N21       29.68R WCI  26
SPRINGFIELD    CLOUDY    37  33  85 N18       29.67R WCI  27
TAYLORVILLE    CLOUDY    36  34  93 N16G22    29.63R FOG     WCI  26
$$

ILZ033-039-045-046-055>057-062-063-252100-
EAST-CENTRAL ILLINOIS

CITY           SKY/WX    TMP DP  RH WIND       PRES   REMARKS
CHAMPAIGN      CLOUDY    36  34  92 NE18      29.63R FOG     WCI  26
DANVILLE*      LGT RAIN  33  32  97 NE14      29.61S WCI  23
RANTOUL*       LGT RAIN  35  34  95 NE18G24   29.65R WCI  24
MATTOON        CLOUDY    39  38  96 NE7       29.59R FOG     WCI  34
PARIS*         CLOUDY    38  38 100 NE5       29.61S FOG     WCI  35
$$

ILZ079-100>102-252100-
SOUTHWEST ILLINOIS

CITY           SKY/WX    TMP DP  RH WIND       PRES   REMARKS
BELLEVILLE     LGT RAIN  46  46 100 N12       29.58R FOG
CAHOKIA*       CLOUDY    46  43  89 W15G22    29.59R FOG
SPARTA*        DRIZZLE   44  43  95 NW9       29.58S
$$

ILZ064>066-069>071-074>076-080>082-084>086-088>090-092>094-252100-
SOUTH-CENTRAL ILLINOIS

CITY           SKY/WX    TMP DP  RH WIND       PRES   REMARKS
CARBONDALE     LGT RAIN  44  42  93 W8        29.57S FOG
CAIRO*         RAIN      44  44 100 SW7       29.61S
EFFINGHAM*     CLOUDY    41  38  89 CALM      29.60S FOG
MARION         RAIN      43  41  93 SW12      29.57F
MT. VERNON     CLOUDY    43  39  87 CALM      29.57S
CENTRALIA*     CLOUDY    43  40  89 NW3       29.57S FOG
SALEM*         DRIZZLE   45  42  87 N5        29.58R
METROPOLIS*    RAIN      42  42 100 W7        29.60R
$$

ILZ067-068-072-073-078-083-087-091-252100-
SOUTHEAST ILLINOIS

CITY           SKY/WX    TMP DP  RH WIND       PRES   REMARKS
LAWRENCEVILLE  CLOUDY    41  40  96 SE3       29.60S FOG
FLORA*         DRIZZLE   41  41  99 CALM      29.58S
FAIRFIELD*     LGT RAIN  42  41  98 S3        29.56F
HARRISBURG*    RAIN      42  42 100 S3        29.58F
ROBINSON*      CLOUDY    40  39  97 SE7       29.60S FOG
CARMI*         RAIN      45  43  93 S5        29.58S
$$

ABBREVIATIONS USED IN REMARKS
   TC - TEMPERATURE IN CELSIUS
  WCI - WIND CHILL INDEX
   HX - HEAT INDEX
  VSB - VISIBILITY
$$



USA.gov is the U.S. government's official web portal to all federal, state and local government web resources and services.